Honolulu, HI

12:59 AM HST on September 21, 2017 (GMT -1000)
Honolulu International

Weather History for PHNL - November, 2011

Change the Weather History Date:

Tuesday, November 29, 2011

  Actual Average Record
Temperature  
Mean Temperature 77 °F 76 °F  
Max Temperature 82 °F 83 °F 88 °F (1983)
Min Temperature 71 °F 70 °F 59 °F (1985)
Degree Days  
Heating Degree Days 0 0  
Month to date heating degree days 0 0  
Since 1 July heating degree days 0 0  
Cooling Degree Days 12 11  
Month to date cooling degree days 414 369  
Year to date cooling degree days 4584 4315  
Growing Degree Days 26 (Base 50)    
Moisture  
Dew Point 62 °F    
Average Humidity 71    
Maximum Humidity 93    
Minimum Humidity 48    
Precipitation  
Precipitation T in 0.08 in 3.81 in (1954)
Month to date precipitation 0.89 2.34  
Year to date precipitation 14.54 13.78  
Snow  
Snow 0.00 in - - ()
Month to date snowfall 0.0  
Since 1 July snowfall 0.0  
Since 1 September snowfall 0.0  
Snow Depth 0.00 in    
Sea Level Pressure  
Sea Level Pressure 29.95 in    
Wind  
Wind Speed 11 mph (NE)    
Max Wind Speed 21 mph    
Max Gust Speed 28 mph    
Visibility 10 miles    
Events      
T = Trace of Precipitation, MM = Missing Value Source: NWS Daily Summary

Daily Weather History Graph

Daily Weather History Graph

Search for Another Location

Airport or City:

Trip Planner

Search our weather history database for the weather conditions in past years. The results will help you decide how hot, cold, wet, or windy it might be!

Date:

Astronomy

Nov. 29, 2011 Rise Set
Actual Time 6:51 AM HST 5:48 PM HST
Civil Twilight 6:27 AM HST 6:12 PM HST
Nautical Twilight 6:00 AM HST 6:39 PM HST
Astronomical Twilight 5:33 AM HST 7:06 PM HST
Moon 10:57 AM HST (11/29) 10:37 PM HST (11/29)
Length of Visible Light 11h 44m
Length of Day
10h 57m
Waxing Crescent, 26% of the Moon is Illuminated
Nov 29
Waxing Crescent
Dec 1
First Quarter
Dec 10
Full
Dec 17
Last Quarter
Dec 24
New

Hourly Weather History & Observations

Time (HST) Temp. Heat Index Dew Point Humidity Pressure Visibility Wind Dir Wind Speed Gust Speed Precip Events Conditions
12:53 AM 73.0 °F - 60.1 °F 64% 30.02 in 10.0 mi ENE 16.1 mph - 0.00 in   Mostly Cloudy
1:53 AM 73.0 °F - 60.1 °F 64% 29.99 in 10.0 mi NE 13.8 mph - N/A   Scattered Clouds
2:53 AM 72.0 °F - 57.0 °F 59% 29.97 in 10.0 mi ENE 4.6 mph - N/A   Partly Cloudy
3:53 AM 73.0 °F - 57.9 °F 59% 29.95 in 10.0 mi ENE 16.1 mph 19.6 mph N/A   Partly Cloudy
4:53 AM 73.9 °F - 60.1 °F 62% 29.96 in 10.0 mi NE 8.1 mph - N/A   Scattered Clouds
5:53 AM 73.0 °F - 55.9 °F 55% 29.97 in 10.0 mi NE 3.5 mph - N/A   Scattered Clouds
6:53 AM 73.9 °F - 61.0 °F 64% 29.98 in 10.0 mi ENE 16.1 mph 21.9 mph 0.00 in   Mostly Cloudy
7:53 AM 71.1 °F - 61.0 °F 70% 29.99 in 10.0 mi NE 4.6 mph - N/A   Mostly Cloudy
8:53 AM 75.9 °F - 61.0 °F 60% 29.99 in 10.0 mi ENE 10.4 mph - N/A   Scattered Clouds
9:53 AM 78.1 °F - 60.1 °F 54% 29.99 in 10.0 mi ENE 11.5 mph - N/A   Scattered Clouds
10:53 AM 79.0 °F - 57.9 °F 48% 29.98 in 10.0 mi ENE 19.6 mph 26.5 mph N/A   Scattered Clouds
11:53 AM 81.0 °F 81.7 °F 61.0 °F 50% 29.95 in 10.0 mi ENE 18.4 mph 24.2 mph N/A   Scattered Clouds
12:53 PM 82.0 °F 83.0 °F 62.1 °F 51% 29.92 in 10.0 mi ENE 15.0 mph - N/A   Scattered Clouds
1:53 PM 80.1 °F 81.5 °F 63.0 °F 56% 29.90 in 10.0 mi NNE 16.1 mph 23.0 mph N/A   Scattered Clouds
2:53 PM 79.0 °F - 64.0 °F 60% 29.89 in 10.0 mi NNE 15.0 mph - N/A   Scattered Clouds
3:53 PM 77.0 °F - 64.0 °F 64% 29.90 in 10.0 mi NE 10.4 mph - N/A   Scattered Clouds
4:53 PM 77.0 °F - 64.0 °F 64% 29.90 in 10.0 mi NE 15.0 mph 19.6 mph N/A   Scattered Clouds
5:53 PM 75.0 °F - 64.9 °F 71% 29.91 in 10.0 mi NNE 6.9 mph - N/A   Scattered Clouds
6:53 PM 75.0 °F - 64.9 °F 71% 29.93 in 10.0 mi NE 10.4 mph 20.7 mph N/A   Scattered Clouds
7:53 PM 75.0 °F - 64.9 °F 71% 29.95 in 10.0 mi ENE 6.9 mph - N/A   Mostly Cloudy
8:53 PM 73.0 °F - 66.9 °F 81% 29.97 in 10.0 mi NNE 3.5 mph - N/A   Mostly Cloudy
9:53 PM 73.0 °F - 66.9 °F 81% 29.96 in 10.0 mi North 3.5 mph - N/A   Scattered Clouds
10:53 PM 72.0 °F - 69.1 °F 91% 29.96 in 10.0 mi NNW 5.8 mph - 0.00 in   Mostly Cloudy
11:53 PM 71.1 °F - 69.1 °F 93% 29.96 in 10.0 mi NNW 5.8 mph - 0.00 in   Partly Cloudy